EW4971 Weather Reports


time (UTC)temp
C
wind
direction
speed
KPH
gust
KPH
rain 1hr
cm
rain 24hr
cm
rain mn
cm
humidity
%
barometer
mb
20260503193110 -17 221 0.0 0.0 0.00 0.00 0.00 1013.9
20260503191553 -17 173 0.0 0.0 0.00 0.00 0.00 1013.9
20260503190059 -17 165 0.0 0.0 0.00 0.00 0.00 1013.8
20260503184543 -17 212 0.0 0.0 0.00 0.00 0.00 1013.9
20260503183054 -17 176 0.0 0.0 0.00 0.00 0.00 1013.7
20260503181534 -17 183 0.0 0.0 0.00 0.00 0.00 1013.5
20260503180038 -17 209 0.0 0.0 0.00 0.00 0.00 1013.6
20260503174524 -17 202 0.0 0.0 0.00 0.00 0.00 1013.7
20260503173020 -17 240 0.0 0.0 0.00 0.00 0.00 1013.6
20260503171530 -17 203 0.0 0.0 0.00 0.00 0.00 1013.5
20260503081544 -17 192 0.0 0.0 0.00 0.00 0.00 1011.9
20260503071520 -17 92 0.0 0.0 0.00 0.00 0.00 1011.8
20260503054513 -17 48 0.0 0.0 0.00 0.00 0.00 1012.0
20260503053013 -17 65 0.0 0.0 0.00 0.00 0.00 1012.1
20260503051512 -17 9 0.0 0.0 0.00 0.00 0.00 1012.2
20260503050013 -17 80 0.0 0.0 0.00 0.00 0.00 1012.2
20260503044511 -17 69 0.0 0.0 0.00 0.00 0.00 1012.1
20260503043009 -17 123 0.0 0.0 0.00 0.00 0.00 1011.9
20260503041508 -17 105 0.0 0.0 0.00 0.00 0.00 1011.8
20260503040008 -17 38 0.0 0.0 0.00 0.00 0.00 1011.5
20260503034508 -17 56 0.0 0.0 0.00 0.00 0.00 1011.2
20260503033006 -17 88 0.0 0.0 0.00 0.00 0.00 1011.0
20260503031504 -17 65 0.0 0.0 0.00 0.00 0.00 1010.8
20260503030059 -17 52 0.0 0.0 0.00 0.00 0.00 1010.7
20260503024603 -17 83 0.0 0.0 0.00 0.00 0.00 1010.7
20260503023050 -17 71 0.0 0.0 0.00 0.00 0.00 1010.6
20260503021550 -17 93 0.0 0.0 0.00 0.00 0.00 1010.6
20260503020050 -17 107 0.0 0.0 0.00 0.00 0.00 1010.6
20260503014605 -17 38 0.0 0.0 0.00 0.00 0.00 1010.7
20260503013036 -17 108 0.0 0.0 0.00 0.00 0.00 1010.7
20260503011531 -17 132 0.0 0.0 0.00 0.00 0.00 1010.8
20260503010024 -17 157 0.0 0.0 0.00 0.00 0.00 1010.8
20260503004526 -17 207 0.0 0.0 0.00 0.00 0.00 1010.9
20260503003015 -17 195 0.0 0.0 0.00 0.00 0.00 1010.9
20260503001510 -17 198 0.0 0.0 0.00 0.00 0.00 1011.0
20260503000005 -17 214 0.0 0.0 0.00 0.00 0.00 1011.1
20260502234503 -17 198 0.0 0.0 0.00 0.00 0.00 1011.3
20260502233056 -17 248 0.0 0.0 0.00 0.00 0.00 1011.4
20260502231553 -17 228 0.0 0.0 0.00 0.00 0.00 1011.6
20260502230048 -17 220 0.0 0.0 0.00 0.00 0.00 1011.9
20260502224553 -17 232 0.0 0.0 0.00 0.00 0.00 1012.2
20260502223040 -17 246 0.0 0.0 0.00 0.00 0.00 1012.4
20260502221534 -17 217 0.0 0.0 0.00 0.00 0.00 1012.8
20260502220029 -17 261 0.0 0.0 0.00 0.00 0.00 1013.1
20260502214524 -17 252 0.0 0.0 0.00 0.00 0.00 1013.3
20260502213019 -17 266 0.0 0.0 0.00 0.00 0.00 1013.4
20260502211529 -17 265 0.0 0.0 0.00 0.00 0.00 1013.4
20260502210015 -17 255 0.0 0.0 0.00 0.00 0.00 1013.5
20260502204506 -17 210 0.0 0.0 0.00 0.00 0.00 1013.7
20260502203001 -17 193 0.0 0.0 0.00 0.00 0.00 1014.1
20260502201602 -17 0.0 0.0 0.00 0.00 0.00 1014.2
20260502200053 -17 0.0 0.0 0.00 0.00 0.00 1014.5
20260502194600 -17 0.0 0.0 0.00 0.00 0.00 1014.6